User: anonymous   Login
Location: Ostrava
(49.8330°N, 18.2830°E)
Time: 23:22:31
(UTC+02:00)
Language:

NOAA 19 - Orbit

View from above orbital plane
View from above orbital plane
View from above satellite
View from above satellite

Ground track
Ground track

The orbit data is extracted from the following two-line orbital elements,

1 33591U 09005A   17263.91738401 +.00000098 +00000-0 +78549-4 0  9991
2 33591 099.1037 232.1532 0014211 007.5578 352.5804 14.12212675443909
Epoch (UTC): 20 September 2017 22:01:01
Eccentricity: 0.0014211
inclination: 99.1037°
perigee height: 841 km
apogee height: 862 km
right ascension of ascending node: 232.1532°
argument of perigee: 7.5578°
revolutions per day: 14.12212675
mean anomaly at epoch: 352.5804°
orbit number at epoch: 44390

The dashed part of the orbit path shows where the satellite is in the earth's shadow,  

DLR